SV2BBO-11 Weather Reports


Display with metric or nautical units.
time (UTC)temp
F
wind
direction
speed
MPH
gust
MPH
rain 1hr
in
rain 24hr
in
rain mn
in
humidity
%
barometer
mb
20260906171505 92 342 1.0 8.0 0.00 0.00 0.00 31 1017.1
20260906162142 95 320 5.0 12.0 0.00 0.00 0.00 30 1016.2
20260906154142 95 323 6.0 13.0 0.00 0.00 0.00 32 1016.1
20260906052107 74 0 0.0 0.0 0.00 0.00 0.00 71 1017.0
20260906042859 71 0 0.0 1.0 0.00 0.00 0.00 62 1016.1
20260906042359 71 0 0.0 1.0 0.00 0.00 0.00 61 1016.0
20260906041900 71 0 0.0 0.0 0.00 0.00 0.00 61 1016.0
20260906041359 71 0 0.0 0.0 0.00 0.00 0.00 61 1016.0
20260906040859 71 0 0.0 0.0 0.00 0.00 0.00 62 1016.0
20260906040359 72 0 0.0 0.0 0.00 0.00 0.00 62 1016.0
20260905235158 75 0 0.0 0.0 0.00 0.00 0.00 50 1015.3
20260905233659 76 0 0.0 0.0 0.00 0.00 0.00 51 1015.5
20260905233159 76 0 0.0 0.0 0.00 0.00 0.00 51 1015.5
20260905232158 76 0 0.0 0.0 0.00 0.00 0.00 51 1015.6
20260905224353 77 0 0.0 0.0 0.00 0.00 0.00 49 1015.7
20260905213200 77 0 0.0 0.0 0.00 0.00 0.00 48 1015.8
20260905203159 78 0 0.0 0.0 0.00 0.00 0.00 49 1016.1
20260905202659 78 0 0.0 0.0 0.00 0.00 0.00 49 1016.0
20260905195659 79 0 0.0 4.0 0.00 0.00 0.00 49 1016.0
20260905191659 80 0 0.0 0.0 0.00 0.00 0.00 49 1016.1